Location: アルンシュタイン
(50.0000°N, 10.0000°E)
Time: 09:29:08
(UTC+01:00)

Envisat - Pass Details

Date: 01 October 2023
Orbit: 762 x 764 km, 98.3° (Epoch: 07 December)

Event Time Altitude Azimuth Distance (km) Brightness Sun altitude
Rises 05:59:49 0° 8° (N) 3,245 6.5 -13.5°
Reaches altitude 10° 06:02:15 10° 1° (N) 2,314 5.6 -13.2°
Maximum altitude 06:06:57 39° 294° (WNW) 1,143 3.5 -12.4°
Enters shadow 06:11:34 10° 227° (SW) 2,277 5.0 -11.7°
